This demonstration page uses our WeatherBlox Daily Observations layout. Learn more.

Left ArrowRight Arrow

30.21309, -93.2044

Hourly Observations for August 20, 2020

Temp ( °F °C ) Dew Point ( °F °C ) Humidity (%) Winds ( mph kmh ) Pressure ( in mb ) Visibility ( mi km ) Precip ( " mm )
12:15 am 00:15 Partly Cloudy 78 25.7 66 19.1 67 67 NNE 7 11 29.88 1012 10 16 0.00 0.00
12:35 am 00:35 Partly Cloudy 78 25.4 66 19.1 68 68 NE 7 11 29.88 1012 10 16 0.00 0.00
12:55 am 00:55 Mostly Cloudy 78 25.4 66 18.7 67 67 NE 8 13 29.88 1012 10 16 0.00 0.00
1:15 am 01:15 Cloudy 77 25.2 65 18.6 67 67 ENE 7 11 29.88 1012 10 16 0.00 0.00
1:35 am 01:35 Cloudy 76 24.6 65 18.6 69 69 NE 7 11 29.88 1012 10 16 0.00 0.00
1:55 am 01:55 Partly Cloudy 76 24.4 65 18.6 70 70 NE 6 9 29.87 1011 10 16 0.00 0.00
2:15 am 02:15 Clear 75 23.9 65 18.6 72 72 NE 6 9 29.88 1012 10 16 0.00 0.00
2:35 am 02:35 Clear 74 23.2 65 18.6 75 75 NE 5 7 29.87 1011 10 16 0.00 0.00
2:55 am 02:55 Clear 74 23.5 65 18.5 74 74 NNE 7 11 29.88 1012 10 16 0.00 0.00
3:15 am 03:15 Clear 73 23 65 18.5 76 76 NNE 5 7 29.88 1012 10 16 0.00 0.00
3:35 am 03:35 Clear 73 22.5 65 18.6 79 79 NE 6 9 29.88 1012 10 16 0.00 0.00
3:55 am 03:55 Clear 72 22.4 66 18.8 80 80 NE 5 7 29.88 1012 10 16 0.00 0.00
4:15 am 04:15 Clear 71 21.9 66 18.8 83 83 N 3 6 29.88 1012 10 16 0.00 0.00
4:35 am 04:35 Clear 71 21.7 66 18.8 84 84 Calm 29.87 1011 7 11 0.00 0.00
4:55 am 04:55 Clear 70 21 66 18.7 87 87 Calm 29.87 1012 10 16 0.00 0.00
5:15 am 05:15 Clear 70 21.3 66 18.8 86 86 Calm 29.88 1012 10 16 0.00 0.00
5:35 am 05:35 Clear 70 21.3 66 18.7 85 85 NNW 3 6 29.87 1011 10 16 0.00 0.00
6:00 am 06:00 Mostly Clear 70 21 66 19 88 88 NNW 7 11 29.88 1012 10 16 0.00 0.00
6:50 am 06:50 Mostly Sunny 70 21 66 19 88 88 NNW 7 11 29.88 1012 10 16 0.00 0.00
7:45 am 07:45 Mostly Sunny 72 22 66 19 83 83 N 7 11 29.89 1012 10 16 0.00 0.00
8:50 am 08:50 Partly Cloudy 75 24 68 20 78 78 N 7 11 29.90 1013 10 16 0.00 0.00
9:50 am 09:50 Partly Cloudy 79 26 70 21 74 74 N 7 11 29.91 1013 10 16 0.00 0.00
10:55 am 10:55 Mostly Sunny 84 29 66 19 55 55 NNW 7 11 29.89 1012 10 16 0.00 0.00
11:50 am 11:50 Mostly Sunny 86 30 66 19 52 52 N 9 15 29.88 1012 10 16 0.00 0.00
12:50 pm 12:50 Mostly Sunny 88 31 64 18 46 46 N 6 9 29.85 1011 10 16 0.00 0.00
1:50 pm 13:50 Mostly Sunny 88 31 63 17 43 43 NNE 8 13 29.84 1010 10 16 0.00 0.00
2:50 pm 14:50 Partly Cloudy 88 31 64 18 46 46 NW 9 15 29.82 1010 10 16 0.00 0.00
3:45 pm 15:45 Partly Cloudy 90 32 63 17 41 41 NNW 8 13 29.81 1009 10 16 0.00 0.00
4:50 pm 16:50 Partly Cloudy 90 32 63 17 41 41 NNW 5 7 29.79 1009 10 16 0.00 0.00
5:45 pm 17:45 Partly Cloudy 90 32 63 17 41 41 NNE 6 9 29.79 1009 10 16 0.00 0.00
6:55 pm 18:55 Partly Cloudy 88 31 63 17 43 43 N 6 9 29.79 1009 10 16 0.00 0.00
7:45 pm 19:45 Mostly Sunny 84 29 63 17 48 48 N 5 7 29.80 1009 10 16 0.00 0.00
8:45 pm 20:45 Mostly Clear 81 27 64 18 58 58 NE 5 7 29.81 1009 10 16 0.00 0.00
9:50 pm 21:50 Mostly Clear 79 26 64 18 61 61 NNE 3 6 29.82 1010 10 16 0.00 0.00
10:15 pm 22:15 Clear 75 23.7 66 19 75 75 Calm 29.83 1010 10 16 0.00 0.00
10:35 pm 22:35 Clear 75 23.9 66 18.9 74 74 Calm 29.84 1010 10 16 0.00 0.00
10:55 pm 22:55 Clear 76 24.3 67 19.2 73 73 Calm 29.84 1010 10 16 0.00 0.00
11:15 pm 23:15 Clear 76 24.3 67 19.4 74 74 WNW 3 6 29.84 1010 10 16 0.00 0.00
11:35 pm 23:35 Clear 76 24.4 67 19.4 74 74 NW 3 6 29.84 1010 10 16 0.00 0.00
11:55 pm 23:55 Clear 75 24 67 19.3 75 75 Calm 29.84 1010 10 16 0.00 0.00

Powered by AerisWeather